Regional Weather Roundup
Issued by NWS

Home | Current Version | Previous Version | Text Only | Print | Product List | Glossary Off
Versions: 1 2 3 4 5 6 7 8 9 10 11 12 13 14 15 16 17 18 19 20 21 22 23 24 25 26 27 28 29 30 31 32 33 34 35 36 37 38 39 40 41 42 43 44 45 46 47 48

000
ASUS45 KBOU 202210
RWRCO

WEATHER ROUNDUP FOR COLORADO
NATIONAL WEATHER SERVICE PUEBLO CO
300 PM MST TUE FEB 20 2018

NOTE: "FAIR" INDICATES FEW OR NO CLOUDS BELOW 12000 FEET WITH NO
SIGNIFICANT WEATHER AND/OR OBSTRUCTIONS TO VISIBILITY.

COZ001>005-013-030-031-202300-
...NORTHWEST COLORADO...

CITY           SKY/WX    TMP DP  RH WIND       PRES   REMARKS
CRAIG          FAIR      16   5  62 CALM      29.98R
HAYDEN         FAIR      11   6  81 SW6       29.97R WCI   1
MEEKER         PTSUNNY   21   4  47 W7        29.94R WCI  12
RABBIT EARS PA NOT AVBL
STEAMBOAT SPGS CLOUDY    16   2  54 CALM      29.92R
WALDEN         FAIR      14  -6  41 W18G25    29.84R WCI  -3
$$

COZ006>008-011-202300-
...WEST CENTRAL VALLEYS...

CITY           SKY/WX    TMP DP  RH WIND       PRES   REMARKS
GRAND JUNCTION FAIR      31  10  41 N5        29.99R WCI  26
MONTROSE       LGT SNOW  23  18  81 N5        30.00R WCI  17
EAGLE          CLOUDY    21   8  57 S20       29.92R WCI   6
RIFLE          FAIR      26   7  44 W12G17    29.96R WCI  16
DELTA          NOT AVBL
NUCLA          MOCLDY    30  14  51 W14G22    30.00R WCI  20
$$

COZ017>023-064>068-202300-
...SOUTHWEST COLORADO...

CITY           SKY/WX    TMP DP  RH WIND       PRES   REMARKS
DURANGO        PTSUNNY   25   7  46 W9        29.95R WCI  15
CORTEZ         PTSUNNY   31  10  41 SW10G18   29.98R WCI  22
PAGOSA SPRINGS PTSUNNY   24   6  46 SW14      29.93R WCI  12
TELLURIDE      CLOUDY    17  -6  35 SW5G16    29.86R WCI  10
WOLF CREEK PAS NOT AVBL
$$

COZ009-010-012-014-032>034-037-058>063-202300-
...CENTRAL COLORADO...

CITY           SKY/WX    TMP DP  RH WIND       PRES   REMARKS
ASPEN          CLOUDY    15   9  76 N10       29.86R WCI   2
BUENA VISTA    CLOUDY    22  -3  32 W12       29.82R WCI  11
COPPER MTN     CLOUDY     5  -8  56 W12G26    29.68R HAZE    WCI -11
BERTHOUD PASS  CLOUDY    -4 -15  59 W22G32    29.64R HAZE    WCI -28
COTTONWOOD PAS CLOUDY    19  -6  32 SW10G23   29.76R WCI   8
GUNNISON       PTSUNNY   22   3  44 SW13G22   29.86R WCI  10
KREMMLING      SNOW      21  12  68 NW5       29.89R VSB 1/2 WCI  15
LEADVILLE      CLOUDY    10  -7  46 NW6       29.75R WCI   0
MONARCH PASS     N/A      1  -4  78 W32G38    29.79R WCI -25
SALIDA         CLOUDY    26   0  33 SW8G16    29.92R WCI  17
SUNLIGHT       SNOW       3   0  85 SW6       29.82R VSB 1/2 WCI  -8
WILKERSON PASS PTSUNNY   10   0  61 SW8G25    29.74R WCI  -1
$$

COZ069>075-202300-
...SAN LUIS VALLEY/SANGRE DE CRISTO MOUNTAINS...

CITY           SKY/WX    TMP DP  RH WIND       PRES   REMARKS
ALAMOSA        FAIR      29  -3  25 SW14G30   29.86R WCI  18
DEL NORTE      FAIR      24   3  40 SW17G29   29.86R WCI  10
LA VETA PASS   PTSUNNY   19   1  45 S30G51    29.87R WCI   0
SAGUACHE       PTSUNNY   28   1  31 NW9G16    29.83R WCI  20
$$

COZ035-036-038>040-202300-
...NORTHERN COLORADO FRONT RANGE...

CITY           SKY/WX    TMP DP  RH WIND       PRES   REMARKS
DENVER INTL AP PTSUNNY   12   5  73 SE3       29.97R
DMNS CITY PARK NOT AVBL
AURORA         PTSUNNY   15   7  69 NE5       29.96R WCI   8
FRONT RANGE AP PTSUNNY   14   7  73 CALM      29.98R
ERIE MUNI ARPT PTSUNNY   13   3  64 CALM      30.06R
BOULDER MUN AP CLOUDY    12   3  67 CALM      29.99R
CENTENNIAL     PTSUNNY   18   8  65 N8        29.93R WCI   8
BROOMFIELD     PTSUNNY   10   5  79 N6        29.97R WCI   1
LOVELAND       FAIR      18   3  52 S7        30.02R WCI   9
LONGMONT       CLOUDY    16   3  58 CALM      30.03R
$$

COZ041-046-047-076>085-087-088-202300-
...PIKES PEAK/PALMER DIVIDE AND SOUTHERN FOOTHILLS...

CITY           SKY/WX    TMP DP  RH WIND       PRES   REMARKS
COLO. SPRINGS  PTSUNNY   19  14  81 SE7       29.91R WCI  10
A. F. ACADEMY  FAIR      20  12  70 S6        29.87R WCI  12
SCHRIEVER AFB  NOT AVBL
CHEYENNE MTN   NOT AVBL
ELLICOTT         N/A    N/A N/A N/A S6        29.90R
FALCON         FAIR      21  12  68 MISG      29.88R
FORT CARSON    CLOUDY    19  13  77 SE7       29.91R WCI  10
LIMON          FAIR      19   9  65 NE6       29.97R WCI  11
MONUMENT HILL  PTSUNNY   16  12  86 NE3       29.87R
CANON CITY     MOSUNNY   27  18  69 E5        29.93R WCI  21
WALSENBURG     FAIR      28  23  80 NE13      29.88R WCI  18
TRINIDAD       FAIR      29  17  61 E10       29.90R WCI  20
$$

COZ042>045-048>051-090-091-202300-
...NORTHEAST COLORADO...

CITY           SKY/WX    TMP DP  RH WIND       PRES   REMARKS
GREELEY ARPT   FAIR      11   0  61 S8        30.05R WCI  -1
AKRON          FAIR      12   1  61 N10       30.03R WCI  -1
BURLINGTON     FAIR      15   3  59 N13       30.06R WCI   1
WRAY           FAIR      19   3  49 N13       30.12R WCI   7
YUMA           NOT AVBL
STERLING       FAIR      18   3  53 N8        30.07R WCI   7
HOLYOKE        FAIR      19   1  45 N16       30.11R WCI   5
FORT MORGAN    CLOUDY    15   2  57 W5        30.06R WCI   7
$$

COZ086-089-092>099-202300-
...SOUTHEAST COLORADO...

CITY           SKY/WX    TMP DP  RH WIND       PRES   REMARKS
PUEBLO         FAIR      23  14  68 SE13      29.98R WCI  11
LA JUNTA       FAIR      25  11  55 NE8G16    30.03R WCI  16
LAMAR          FAIR      27   5  39 NE13      30.06R WCI  16
SPRINGFIELD      N/A     27   7  42 NE10      30.01R WCI  17
$$





USA.gov is the U.S. government's official web portal to all federal, state and local government web resources and services.